Location: *
(6.0000°S, 32.3997°W)
Time: 14:49:03
(UTC+00:00)

Cosmos 1674 - Pass Details

Date: 01 April 2020
Orbit: 495 x 518 km, 82.5° (Epoch: 26 May)

Event Time Altitude Azimuth Distance (km) Brightness Sun altitude
Rises 20:52:55 0° 12° (NNE) 2,562 6.2 -10.4°
Reaches altitude 10° 20:55:09 10° 21° (NNE) 1,684 5.1 -10.9°
Maximum altitude 20:58:30 33° 87° (E) 845 3.2 -11.7°
Drops below altitude 10° 21:01:52 10° 152° (SSE) 1,696 5.0 -12.6°
Sets 21:04:07 0° 162° (SSE) 2,584 6.0 -13.1°
